Weather History for Alamosa, CO

Change the Weather History Date:

Tuesday, March 19, 2013

  Actual Average Record
Temperature  
Mean Temperature 33 °F 35 °F  
Max Temperature 49 °F 51 °F 72 °F (1907)
Min Temperature 16 °F 18 °F -6 °F (1944)
Degree Days  
Heating Degree Days 32 30  
Month to date heating degree days 579 631  
Since 1 July heating degree days 7366 6960  
Cooling Degree Days 0 0  
Month to date cooling degree days 0 0  
Year to date cooling degree days 0 0  
Moisture  
Dew Point 6 °F    
Average Humidity 42    
Maximum Humidity 67    
Minimum Humidity 16    
Precipitation  
Precipitation 0.00 in 0.01 in 0.16 in (2010)
Month to date precipitation 0.32 0.30  
Year to date precipitation 0.54 0.82  
Snow  
Snow 0.00 in 0.20 in 2.50 in (2010)
Month to date snowfall 3.2 3.0  
Since 1 July snowfall 18.7 21.1  
Snow Depth 0.00 in    
Sea Level Pressure  
Sea Level Pressure 30.08 in    
Wind  
Wind Speed 7 mph (North)    
Max Wind Speed 17 mph    
Max Gust Speed 26 mph    
Visibility 10 miles    
Events      
T = Trace of Precipitation, MM = Missing Value Source: NWS Daily Summary

Daily Weather History Graph

Daily Weather History Graph

Search for Another Location

Airport:

Trip Planner

Search our weather history database for the weather conditions in past years. The results will help you decide how hot, cold, wet, or windy it might be!

Date:

Astronomy

Mar. 19, 2013 Rise Set
Actual Time 7:08 AM MDT 7:14 PM MDT
Civil Twilight 6:42 AM MDT 7:40 PM MDT
Nautical Twilight 6:11 AM MDT 8:11 PM MDT
Astronomical Twilight 5:40 AM MDT 8:42 PM MDT
Moon 12:07 PM MDT (3/19) 1:56 AM MDT (3/19)
Length of Visible Light 12h 58m
Length of Day
12h 06m
Waxing Crescent, 50% of the Moon is Illuminated
Mar 19
Waxing Crescent
Mar 27
Full
Apr 2
Last Quarter
Apr 10
New
Apr 18
First Quarter

Hourly Weather History & Observations

Time (MDT) Temp. Windchill Dew Point Humidity Pressure Visibility Wind Dir Wind Speed Gust Speed Precip Events Conditions
12:52 AM 23.0 °F 18.4 °F 6.1 °F 48% 29.99 in 10.0 mi SE 3.5 mph - N/A   Clear
1:52 AM 21.0 °F 14.6 °F 8.1 °F 57% 30.00 in 10.0 mi South 4.6 mph - N/A   Clear
2:52 AM 19.9 °F 13.4 °F 8.1 °F 60% 29.99 in 10.0 mi WNW 4.6 mph - N/A   Clear
3:52 AM 19.0 °F 12.3 °F 9.0 °F 65% 29.99 in 10.0 mi SE 4.6 mph - N/A   Clear
4:52 AM 19.0 °F 12.3 °F 8.1 °F 62% 30.00 in 10.0 mi North 4.6 mph - N/A   Clear
5:52 AM 19.0 °F 13.9 °F 8.1 °F 62% 30.01 in 10.0 mi NNW 3.5 mph - N/A   Clear
6:52 AM 19.9 °F 11.1 °F 10.0 °F 65% 30.05 in 10.0 mi NE 6.9 mph - N/A   Clear
7:52 AM 19.9 °F 14.9 °F 10.9 °F 68% 30.10 in 10.0 mi West 3.5 mph - N/A   Clear
8:52 AM 28.0 °F - 12.0 °F 51% 30.11 in 10.0 mi Calm Calm - N/A   Clear
9:52 AM 37.0 °F 33.3 °F 10.9 °F 34% 30.10 in 10.0 mi NNW 4.6 mph - N/A   Clear
10:52 AM 43.0 °F 36.0 °F 7.0 °F 23% 30.07 in 10.0 mi NNE 13.8 mph 19.6 mph N/A   Clear
11:52 AM 45.0 °F 40.6 °F 7.0 °F 21% 30.05 in 10.0 mi NNE 8.1 mph - N/A   Clear
12:52 PM 46.0 °F 41.4 °F 8.1 °F 21% 30.08 in 10.0 mi NNE 9.2 mph 20.7 mph N/A   Clear
1:52 PM 46.9 °F - 7.0 °F 20% 30.09 in 10.0 mi North 8.1 mph - N/A   Scattered Clouds
2:52 PM 48.9 °F - 7.0 °F 18% 30.06 in 10.0 mi North 11.5 mph 21.9 mph N/A   Scattered Clouds
3:52 PM 48.0 °F - 8.1 °F 20% 30.07 in 10.0 mi WNW 8.1 mph - N/A   Clear
4:52 PM 46.9 °F - 8.1 °F 21% 30.09 in 10.0 mi NW 6.9 mph - N/A   Mostly Cloudy
5:52 PM 46.9 °F - 7.0 °F 20% 30.10 in 10.0 mi Variable 3.5 mph - N/A   Partly Cloudy
6:52 PM 45.0 °F 39.3 °F -0.9 °F 15% 30.12 in 10.0 mi North 11.5 mph - N/A   Scattered Clouds
7:52 PM 41.0 °F 34.7 °F -0.0 °F 18% 30.17 in 10.0 mi North 10.4 mph - N/A   Clear
8:52 PM 37.0 °F 31.0 °F 3.0 °F 24% 30.18 in 10.0 mi North 8.1 mph 26.5 mph N/A   Clear
9:52 PM 33.1 °F 26.1 °F 3.9 °F 29% 30.19 in 10.0 mi NNE 8.1 mph - N/A   Clear
10:52 PM 33.1 °F 25.5 °F 1.0 °F 26% 30.17 in 10.0 mi North 9.2 mph - N/A   Clear
11:52 PM 26.1 °F - 1.0 °F 34% 30.21 in 10.0 mi Calm Calm - N/A   Clear